Wind_Speed
21 21 20 19 19 20 19 19 18 19 18 18 17 17 16 16 15 15 15 14 13 13 13 13 14 15 15 15 15 15 15 15 14 14 13 13 14 13 13 13 12 11 12 12
21 22 21 21 20 20 20 20 19 19 20 19 18 17 16 16 16 16 15 15 14 13 13 14 14 15 15 15 15 15 15 15 15 14 14 14 13 13 13 12 12 11 11 12
21 22 22 22 21 21 20 20 20 21 20 20 19 17 17 16 16 15 15 15 15 14 14 15 15 15 15 15 15 14 14 14 14 13 14 13 13 12 12 12 11 11 10 10
23 23 23 22 21 21 20 20 21 21 20 20 19 18 17 17 16 16 16 16 16 15 15 16 16 16 16 15 15 15 14 13 13 13 13 13 13 13 13 12 11 10 10 10
23 23 22 22 22 21 21 21 21 21 21 20 19 18 17 17 17 16 16 17 17 16 16 16 16 16 16 16 15 14 13 13 13 14 13 13 13 13 13 12 11 11 11 11
25 24 23 22 22 22 22 21 21 21 21 20 18 18 17 17 17 17 17 17 17 16 16 17 16 16 16 15 15 14 13 13 13 13 13 13 12 12 11 11 11 11 11 10
25 24 24 23 23 23 22 20 20 20 20 20 18 18 17 17 17 17 18 18 17 17 17 17 17 15 14 14 14 14 13 13 13 13 13 12 11 10 10 10 10 10 10 10
25 24 24 24 23 22 22 21 20 19 18 19 20 19 18 18 17 17 18 18 17 17 17 17 17 15 14 14 13 12 12 12 12 12 12 11 10 9 9 9 9 10 10 11
25 24 24 24 23 23 23 22 20 20 20 19 19 19 19 18 18 17 17 16 16 16 16 16 16 15 14 13 12 11 11 11 11 12 11 10 10 10 10 9 10 10 10 11
25 25 25 24 24 24 24 23 23 21 20 19 19 19 19 18 17 16 15 15 16 16 16 16 15 15 14 13 12 12 11 11 10 11 11 10 11 10 10 10 10 10 10 10
25 25 25 24 24 24 24 23 23 22 21 19 18 18 19 18 18 17 17 17 17 16 16 16 15 14 13 13 12 10 10 10 10 11 11 11 11 11 11 11 11 11 11 11
26 25 25 24 24 24 24 24 24 23 22 20 19 19 19 18 19 19 18 18 17 17 17 16 14 14 14 13 12 12 11 11 11 11 11 12 12 12 12 12 12 11 11 10
26 27 25 24 25 25 25 25 24 24 24 23 21 20 20 19 19 19 18 18 17 17 17 16 15 14 14 13 13 12 12 12 12 11 11 11 11 10 10 11 10 10 10 11
26 26 25 24 24 24 25 25 24 24 24 24 23 21 21 21 20 19 18 18 18 18 17 16 15 15 14 14 13 13 13 13 13 13 12 12 11 11 10 10 10 10 9 9
25 25 25 25 24 24 24 24 24 24 24 24 23 23 22 23 22 20 19 19 18 18 18 18 17 16 16 15 15 14 14 14 14 14 14 13 13 13 11 11 10 10 9 9
26 25 24 25 25 25 25 25 25 25 24 25 24 24 23 22 22 21 20 19 19 19 18 17 17 17 17 17 16 16 15 15 16 15 15 14 14 14 13 12 12 11 11 11
26 25 25 24 25 26 26 25 25 24 25 25 25 24 23 23 22 21 20 20 19 19 18 18 18 18 18 18 17 17 16 16 17 17 17 16 15 15 14 14 13 13 13 13
25 25 25 24 25 27 26 25 25 25 26 25 25 24 23 23 22 21 21 21 20 20 20 19 19 19 19 18 17 17 17 17 17 18 18 18 17 17 16 16 16 16 15 15
25 25 26 25 25 26 27 25 25 26 27 26 25 24 24 24 23 23 22 22 22 22 21 21 21 21 20 19 19 19 18 17 18 18 18 18 18 18 18 18 17 17 17 17
25 25 25 25 25 25 27 26 25 25 26 26 25 24 24 23 24 23 23 22 22 22 22 22 22 22 21 20 20 19 18 18 18 19 19 19 19 19 18 18 18 19 20 20
25 25 25 25 25 26 26 25 24 25 25 24 24 24 24 23 23 23 23 22 22 22 22 22 22 22 21 21 20 19 20 20 20 20 20 20 19 19 18 18 18 19 19 19
24 24 24 24 25 27 26 25 25 25 25 24 24 23 23 23 22 22 22 22 22 22 23 22 22 22 22 21 21 21 21 21 21 21 22 21 21 21 20 20 20 19 19 19
23 23 24 25 26 26 26 25 25 25 24 24 23 22 23 22 22 22 22 22 23 23 23 23 23 23 23 23 23 23 23 23 23 23 23 22 22 22 22 22 21 20 20 20
21 21 22 23 24 25 25 25 25 25 24 23 23 23 23 23 22 22 21 21 22 23 23 23 23 23 23 23 24 24 24 24 24 23 24 24 24 23 23 22 22 21 21 21
19 19 20 21 21 23 24 24 24 24 23 22 23 23 23 23 22 22 21 22 21 21 22 22 22 23 23 24 24 24 25 25 25 25 25 25 24 23 22 23 23 23 23 22
18 19 19 19 20 21 22 23 24 23 22 21 21 22 22 22 22 22 22 22 22 21 21 22 22 23 23 23 24 25 26 25 25 24 24 24 24 24 24 24 24 25 24 24
Wind_Direction
235 235 235 235 235 234 235 237 241 245 250 252 255 256 259 262 266 270 276 283 283 287 288 288 291 293 293 291 288 285 284 282 281 280 274 270 264 262 260 262 266 270 270 271
234 235 235 235 234 234 234 236 242 247 250 252 254 258 259 259 264 268 273 279 281 283 287 290 292 293 293 292 290 287 283 278 275 273 272 273 268 265 261 262 265 269 270 268
233 234 235 234 234 235 237 239 242 247 252 255 257 258 259 262 265 267 271 276 279 281 285 289 288 289 291 293 292 288 282 275 271 270 270 272 274 270 268 266 265 269 271 264
232 233 234 233 234 236 238 242 245 249 252 256 258 261 261 264 266 269 271 275 276 279 285 288 287 287 288 289 289 286 280 273 268 268 269 273 273 267 266 265 266 266 268 268
232 232 233 233 234 237 240 243 245 248 251 254 258 260 262 263 266 270 272 273 275 276 282 286 285 284 284 284 284 283 278 269 266 266 268 272 272 267 264 262 264 267 267 263
231 232 233 233 235 238 241 244 246 249 252 255 258 261 262 264 265 268 270 272 274 274 278 282 283 282 281 282 280 280 275 266 264 266 269 270 270 267 265 260 263 267 264 260
232 233 233 233 235 238 241 244 247 250 253 257 258 260 260 264 266 266 266 269 272 274 274 278 281 281 284 282 279 277 271 266 263 265 267 266 266 266 265 260 263 265 262 258
233 233 234 234 235 239 241 241 242 246 250 256 259 260 262 266 267 266 266 268 271 273 274 276 279 279 281 281 279 274 267 262 260 263 263 262 263 266 267 264 264 263 260 258
232 234 234 234 234 235 237 238 240 247 249 253 259 263 262 264 267 269 269 268 269 273 274 275 278 277 277 276 274 274 265 259 257 258 260 261 259 263 264 265 267 267 262 260
231 233 234 233 234 235 235 237 239 243 248 252 261 267 268 266 264 265 267 269 270 272 274 274 273 272 269 269 269 269 265 261 261 257 259 258 257 261 264 267 270 273 270 264
230 232 234 233 232 235 237 236 239 243 247 253 260 264 267 265 265 265 266 270 271 271 271 270 269 267 264 263 262 266 271 265 260 256 256 257 257 260 262 264 267 269 268 263
229 231 233 234 235 235 236 237 240 243 247 251 257 262 264 265 267 265 265 266 268 267 268 268 266 263 260 261 263 261 264 264 258 255 255 256 258 261 261 259 260 260 261 261
229 230 231 232 235 236 237 238 240 242 246 250 256 262 265 266 266 265 264 265 266 266 265 266 267 265 263 263 262 261 260 261 257 254 254 254 256 261 261 258 256 256 258 259
230 231 230 232 237 239 240 241 240 242 245 250 254 258 263 266 266 267 266 265 265 266 264 264 265 263 262 261 260 262 258 256 256 254 253 255 259 264 265 262 260 258 257 257
229 231 231 232 234 238 240 243 244 245 248 250 254 258 261 265 267 265 265 262 263 264 264 262 263 261 260 260 258 259 258 256 255 255 255 258 260 263 266 264 264 263 265 265
229 231 233 235 236 239 241 242 244 246 250 252 254 257 260 260 262 262 262 262 262 263 263 261 261 261 260 257 254 255 256 257 255 253 254 256 257 259 264 261 260 261 263 265
231 232 234 237 239 240 242 243 246 248 252 255 257 258 257 257 257 259 260 261 262 261 260 258 258 259 258 256 252 251 255 255 255 254 252 253 255 257 262 262 257 257 261 264
231 233 236 238 240 243 245 245 247 251 253 255 255 254 255 256 255 257 259 259 258 258 256 255 255 255 255 255 254 253 254 252 254 254 253 252 254 255 256 259 258 257 261 266
232 235 237 238 243 246 247 247 247 249 249 251 252 254 256 258 256 256 257 258 256 255 253 251 252 253 254 254 255 256 256 254 253 254 253 252 252 253 256 259 260 261 262 265
232 234 236 240 245 248 251 252 250 250 251 249 251 253 256 257 256 255 256 257 254 254 251 248 250 252 252 254 254 256 254 254 254 255 254 253 252 253 256 259 261 262 264 265
231 233 236 240 245 248 252 251 250 248 249 251 252 254 256 254 257 256 256 255 253 252 249 248 249 249 249 252 253 254 255 254 254 255 255 254 255 256 259 261 264 265 266 268
233 236 237 240 242 245 249 250 249 250 252 254 255 254 252 252 254 256 255 252 251 251 249 248 248 248 249 251 252 254 256 256 254 254 253 254 255 257 261 264 265 267 270 271
235 237 239 240 242 247 249 249 251 253 255 255 253 251 249 250 252 255 255 254 253 250 250 249 249 250 248 248 251 254 255 255 254 253 252 253 255 258 260 262 263 266 269 271
236 237 239 242 244 245 248 249 253 254 254 253 250 250 249 251 252 252 252 252 250 250 248 248 249 250 249 251 253 253 254 255 255 254 253 254 255 258 260 260 261 263 266 268
234 235 238 241 245 247 248 251 253 252 251 250 249 250 250 251 249 250 251 250 250 250 249 247 248 248 250 252 253 254 254 255 255 255 254 252 254 257 260 261 262 264 267 268
232 236 240 241 243 244 247 250 252 252 253 252 248 247 246 247 247 249 250 249 248 251 252 252 251 251 251 253 255 256 256 257 258 257 255 253 255 257 260 263 263 264 266 267
Height
5839 5843 5845 5849 5851 5854 5855 5857 5858 5859 5859 5861 5861 5862 5863 5862 5862 5862 5862 5861 5861 5860 5859 5858 5857 5855 5854 5853 5851 5850 5849 5848 5847 5846 5845 5844 5844 5843 5843 5843 5843 5843 5843 5843
5835 5838 5842 5844 5846 5848 5851 5853 5854 5855 5855 5856 5857 5858 5858 5858 5858 5858 5858 5858 5857 5856 5855 5854 5853 5852 5851 5850 5848 5846 5845 5844 5843 5843 5842 5841 5840 5839 5840 5840 5840 5840 5840 5839
5831 5834 5836 5839 5841 5844 5846 5848 5850 5850 5851 5852 5853 5855 5855 5855 5854 5854 5854 5854 5853 5853 5852 5851 5850 5849 5847 5846 5844 5843 5841 5840 5840 5839 5839 5838 5837 5837 5837 5837 5837 5837 5836 5836
5825 5828 5831 5834 5837 5839 5842 5844 5845 5846 5847 5849 5850 5851 5851 5851 5851 5851 5850 5850 5849 5849 5848 5847 5846 5845 5843 5842 5841 5839 5838 5837 5836 5836 5835 5835 5835 5834 5834 5834 5834 5834 5833 5833
5821 5823 5826 5829 5832 5835 5837 5838 5840 5841 5843 5844 5845 5847 5849 5847 5847 5847 5846 5846 5845 5845 5844 5843 5842 5840 5839 5838 5837 5835 5834 5834 5833 5833 5833 5832 5832 5831 5830 5830 5831 5831 5830 5831
5815 5819 5821 5824 5827 5829 5831 5834 5835 5836 5838 5840 5842 5842 5844 5843 5843 5842 5842 5842 5841 5841 5840 5839 5837 5836 5835 5834 5833 5832 5831 5830 5830 5830 5829 5829 5828 5828 5827 5828 5828 5828 5828 5828
5810 5813 5816 5819 5821 5824 5826 5829 5831 5833 5834 5836 5837 5836 5839 5838 5838 5838 5838 5837 5837 5836 5835 5834 5833 5832 5831 5830 5829 5828 5827 5827 5827 5827 5827 5826 5826 5825 5825 5825 5826 5826 5825 5825
5805 5808 5811 5813 5816 5819 5821 5824 5828 5830 5831 5832 5831 5831 5834 5833 5833 5833 5833 5833 5832 5831 5831 5830 5829 5828 5827 5826 5825 5824 5824 5824 5824 5824 5824 5824 5824 5823 5823 5823 5823 5823 5823 5823
5800 5803 5806 5808 5811 5814 5816 5818 5822 5824 5825 5826 5826 5827 5828 5828 5828 5828 5828 5828 5827 5827 5826 5825 5825 5824 5823 5822 5822 5821 5821 5821 5821 5821 5821 5821 5821 5821 5820 5820 5820 5820 5820 5820
5794 5797 5800 5802 5805 5807 5811 5813 5815 5818 5819 5821 5822 5822 5823 5822 5823 5823 5824 5823 5823 5823 5822 5821 5821 5820 5820 5819 5819 5819 5818 5819 5819 5819 5819 5819 5819 5818 5818 5818 5818 5818 5817 5817
5788 5791 5794 5796 5799 5802 5805 5807 5809 5812 5814 5817 5818 5821 5817 5818 5818 5819 5819 5819 5818 5818 5817 5817 5816 5816 5816 5816 5816 5816 5816 5816 5816 5816 5816 5816 5816 5816 5816 5816 5816 5815 5815 5815
5782 5785 5788 5791 5794 5796 5799 5801 5804 5807 5808 5810 5812 5816 5812 5813 5813 5813 5814 5814 5813 5813 5813 5812 5812 5812 5812 5813 5813 5813 5813 5813 5813 5814 5814 5814 5814 5814 5814 5813 5813 5813 5813 5813
5775 5779 5783 5785 5789 5791 5792 5795 5798 5801 5803 5804 5807 5811 5807 5807 5808 5808 5808 5808 5808 5808 5808 5808 5808 5808 5808 5809 5810 5810 5810 5811 5811 5811 5812 5812 5812 5812 5811 5811 5811 5811 5810 5810
5770 5773 5778 5782 5783 5785 5787 5789 5792 5795 5796 5798 5801 5803 5802 5801 5802 5802 5803 5803 5803 5803 5803 5803 5803 5803 5804 5805 5806 5807 5807 5808 5808 5808 5809 5809 5809 5809 5809 5809 5809 5809 5808 5808
5763 5767 5771 5774 5777 5779 5781 5783 5786 5788 5791 5793 5794 5795 5796 5796 5796 5797 5797 5797 5798 5797 5797 5797 5798 5799 5800 5801 5802 5803 5804 5804 5805 5805 5806 5806 5806 5806 5806 5806 5806 5806 5806 5806
5757 5761 5765 5768 5770 5772 5775 5777 5779 5782 5784 5785 5787 5788 5789 5789 5790 5790 5791 5792 5792 5792 5793 5793 5794 5794 5795 5796 5798 5799 5800 5800 5801 5801 5802 5802 5802 5803 5803 5803 5803 5803 5803 5803
5752 5756 5759 5762 5764 5766 5768 5771 5773 5776 5777 5779 5780 5782 5782 5783 5783 5784 5785 5786 5787 5788 5788 5789 5789 5790 5791 5792 5793 5794 5795 5796 5796 5797 5797 5798 5798 5799 5799 5800 5800 5800 5800 5800
5746 5750 5753 5756 5758 5760 5764 5765 5767 5769 5771 5772 5773 5774 5775 5776 5777 5778 5779 5779 5781 5782 5783 5784 5784 5785 5786 5787 5788 5789 5790 5791 5792 5792 5793 5793 5794 5795 5795 5796 5796 5796 5796 5797
5740 5744 5746 5749 5752 5754 5756 5758 5760 5762 5763 5765 5766 5767 5768 5769 5770 5771 5772 5773 5775 5776 5777 5778 5779 5780 5781 5782 5783 5784 5785 5786 5787 5787 5788 5789 5789 5790 5791 5791 5791 5792 5792 5792
5734 5737 5741 5743 5745 5747 5749 5751 5753 5755 5755 5757 5759 5760 5762 5763 5764 5765 5765 5766 5768 5769 5770 5772 5773 5774 5775 5777 5778 5779 5780 5781 5782 5783 5783 5784 5785 5785 5786 5786 5787 5787 5787 5787
5728 5730 5733 5736 5738 5740 5741 5743 5746 5749 5750 5751 5752 5753 5754 5756 5757 5758 5759 5760 5761 5762 5764 5765 5767 5768 5770 5771 5772 5774 5775 5776 5777 5777 5778 5779 5780 5780 5781 5781 5781 5781 5781 5781
5721 5724 5727 5729 5731 5734 5734 5737 5739 5741 5742 5743 5745 5746 5747 5749 5750 5751 5752 5753 5755 5756 5757 5759 5760 5762 5763 5765 5766 5768 5769 5770 5771 5772 5773 5773 5774 5775 5775 5776 5776 5776 5776 5776
5715 5718 5720 5723 5726 5726 5728 5730 5731 5733 5734 5736 5737 5739 5740 5742 5743 5745 5746 5747 5748 5749 5750 5752 5754 5756 5757 5759 5760 5762 5763 5764 5764 5765 5766 5767 5768 5769 5769 5769 5770 5770 5770 5770
5709 5711 5714 5716 5718 5719 5721 5723 5724 5726 5727 5728 5730 5731 5733 5735 5737 5738 5739 5740 5741 5742 5744 5746 5748 5749 5751 5752 5754 5755 5756 5757 5758 5759 5759 5760 5761 5762 5762 5763 5763 5763 5764 5763
5703 5706 5707 5709 5711 5713 5715 5716 5717 5718 5720 5721 5723 5724 5726 5728 5730 5731 5733 5734 5735 5736 5738 5739 5741 5743 5744 5745 5747 5748 5749 5750 5750 5751 5752 5753 5754 5754 5755 5756 5756 5757 5757 5757
5698 5700 5702 5704 5705 5707 5708 5709 5710 5712 5713 5714 5715 5717 5719 5721 5723 5725 5726 5727 5729 5730 5731 5732 5734 5735 5737 5738 5739 5740 5741 5742 5743 5744 5744 5745 5746 5747 5748 5748 5749 5749 5749 5749